Time,TemperatureF,DewpointF,PressureIn,WindDirection,WindDirectionDegrees,WindSpeedMPH,WindSpeedGustMPH,Humidity,HourlyPrecipIn,Conditions,Clouds,dailyrainin,SoftwareType,DateUTC
2013-02-22 00:04:00,46.2,42.9,29.75,West,270,1.1,1.1,88,0.00,RA,,0.00,WeatherDisplay:10.37,2013-02-22 06:04:00,
2013-02-22 00:09:00,46.0,42.7,29.75,West,270,1.1,0.0,88,0.00,RA,,0.00,WeatherDisplay:10.37,2013-02-22 06:09:00,
2013-02-22 00:14:00,46.0,42.7,29.75,SE,135,1.1,0.0,88,0.00,CLR,,0.00,WeatherDisplay:10.37,2013-02-22 06:14:00,
2013-02-22 00:19:00,46.0,42.7,29.75,SE,134,0.0,2.0,88,0.00,CLR,,0.00,WeatherDisplay:10.37,2013-02-22 06:19:00,
2013-02-22 00:24:00,45.8,42.7,29.75,South,184,0.0,2.0,89,0.00,CLR,,0.00,WeatherDisplay:10.37,2013-02-22 06:24:00,
2013-02-22 00:29:00,45.5,42.4,29.75,West,274,0.0,2.0,89,0.00,CLR,,0.00,WeatherDisplay:10.37,2013-02-22 06:29:00,
2013-02-22 00:35:00,45.1,41.8,29.75,WNW,296,1.0,2.0,88,0.00,CLR,,0.00,WeatherDisplay:10.37,2013-02-22 06:35:00,
2013-02-22 00:40:00,45.0,41.9,29.74,West,270,1.6,1.6,89,0.00,CLR,,0.00,WeatherDisplay:10.37,2013-02-22 06:40:00,
2013-02-22 00:45:00,44.8,41.4,29.74,West,270,1.1,1.1,88,0.00,CLR,,0.00,WeatherDisplay:10.37,2013-02-22 06:45:00,
2013-02-22 00:50:00,44.6,41.6,29.73,West,270,1.1,1.1,89,0.00,CLR,,0.00,WeatherDisplay:10.37,2013-02-22 06:50:00,
2013-02-22 00:55:00,44.4,42.0,29.73,West,270,1.6,1.6,91,0.00,CLR,,0.00,WeatherDisplay:10.37,2013-02-22 06:55:00,
2013-02-22 01:00:00,44.4,42.2,29.72,West,270,2.3,2.3,92,0.00,CLR,,0.00,WeatherDisplay:10.37,2013-02-22 07:00:00,
2013-02-22 01:05:00,44.2,42.3,29.72,West,270,2.3,2.3,93,0.00,CLR,,0.00,WeatherDisplay:10.37,2013-02-22 07:05:00,
2013-02-22 01:10:00,44.4,42.5,29.72,West,270,1.1,0.0,93,0.00,CLR,,0.00,WeatherDisplay:10.37,2013-02-22 07:10:00,
2013-02-22 01:15:00,44.6,42.4,29.71,South,180,0.0,0.0,92,0.00,CLR,,0.00,WeatherDisplay:10.37,2013-02-22 07:15:00,
2013-02-22 01:21:00,44.8,42.6,29.73,SW,225,1.1,1.1,92,0.00,CLR,,0.00,WeatherDisplay:10.37,2013-02-22 07:21:00,
2013-02-22 01:26:00,45.7,42.9,29.74,West,270,2.3,2.3,90,0.00,CLR,,0.00,WeatherDisplay:10.37,2013-02-22 07:26:00,
2013-02-22 01:31:00,46.2,42.3,29.75,West,270,1.1,1.1,86,0.00,CLR,,0.00,WeatherDisplay:10.37,2013-02-22 07:31:00,
2013-02-22 01:36:00,46.8,41.9,29.75,NW,315,1.1,1.1,83,0.00,CLR,,0.00,WeatherDisplay:10.37,2013-02-22 07:36:00,
2013-02-22 01:41:00,46.9,41.1,29.75,SE,135,1.6,1.6,80,0.00,CLR,,0.00,WeatherDisplay:10.37,2013-02-22 07:41:00,
2013-02-22 01:47:00,46.4,41.2,29.75,SE,135,0.0,0.0,82,0.00,CLR,,0.00,WeatherDisplay:10.37,2013-02-22 07:47:00,
2013-02-22 01:52:00,45.7,41.1,29.75,West,270,1.1,1.1,84,0.00,CLR,,0.00,WeatherDisplay:10.37,2013-02-22 07:52:00,
2013-02-22 01:57:00,45.1,40.9,29.75,West,270,2.3,2.3,85,0.00,CLR,,0.00,WeatherDisplay:10.37,2013-02-22 07:57:00,
2013-02-22 02:02:00,44.8,40.5,29.75,NW,315,3.5,3.5,85,0.00,CLR,,0.00,WeatherDisplay:10.37,2013-02-22 08:02:00,
2013-02-22 02:07:00,44.8,40.5,29.75,NW,315,3.5,3.5,85,0.00,CLR,,0.00,WeatherDisplay:10.37,2013-02-22 08:07:00,
2013-02-22 02:13:00,44.2,40.6,29.75,SW,225,1.1,1.1,87,0.00,CLR,,0.00,WeatherDisplay:10.37,2013-02-22 08:13:00,
2013-02-22 02:18:00,44.1,40.7,29.75,SW,225,1.1,0.0,88,0.00,CLR,,0.00,WeatherDisplay:10.37,2013-02-22 08:18:00,
2013-02-22 02:23:00,44.1,40.7,29.75,SW,225,0.0,0.0,88,0.00,CLR,,0.00,WeatherDisplay:10.37,2013-02-22 08:23:00,
2013-02-22 02:28:00,43.9,40.6,29.76,SW,225,0.0,0.0,88,0.00,CLR,,0.00,WeatherDisplay:10.37,2013-02-22 08:28:00,
2013-02-22 02:33:00,43.7,40.4,29.76,SW,225,0.0,0.0,88,0.00,CLR,,0.00,WeatherDisplay:10.37,2013-02-22 08:33:00,
2013-02-22 02:39:00,43.7,40.4,29.77,SW,225,0.0,0.0,88,0.00,CLR,,0.00,WeatherDisplay:10.37,2013-02-22 08:39:00,
2013-02-22 02:44:00,43.7,40.1,29.77,SW,225,0.0,0.0,87,0.00,CLR,,0.00,WeatherDisplay:10.37,2013-02-22 08:44:00,
2013-02-22 02:49:00,43.7,40.1,29.77,SW,225,1.1,0.0,87,0.00,CLR,,0.00,WeatherDisplay:10.37,2013-02-22 08:49:00,
2013-02-22 02:54:00,43.7,40.4,29.77,North,0,0.0,0.0,88,0.00,CLR,,0.00,WeatherDisplay:10.37,2013-02-22 08:54:00,
2013-02-22 02:59:00,43.3,40.0,29.77,North,0,1.1,0.0,88,0.00,CLR,,0.00,WeatherDisplay:10.37,2013-02-22 08:59:00,
2013-02-22 03:04:00,43.2,40.1,29.77,North,0,1.1,0.0,89,0.00,CLR,,0.00,WeatherDisplay:10.37,2013-02-22 09:04:00,
2013-02-22 03:09:00,43.0,39.7,29.77,SW,225,1.1,0.0,88,0.00,CLR,,0.00,WeatherDisplay:10.37,2013-02-22 09:09:00,
2013-02-22 03:14:00,43.0,39.7,29.77,NW,315,0.0,0.0,88,0.00,CLR,,0.00,WeatherDisplay:10.37,2013-02-22 09:14:00,
2013-02-22 03:19:00,43.0,39.7,29.77,NW,315,1.1,0.0,88,0.00,CLR,,0.00,WeatherDisplay:10.37,2013-02-22 09:19:00,
2013-02-22 03:24:00,42.8,39.5,29.77,NW,315,0.0,2.0,88,0.00,CLR,,0.00,WeatherDisplay:10.37,2013-02-22 09:24:00,
2013-02-22 03:29:00,42.8,39.5,29.77,NW,315,1.0,2.0,88,0.00,CLR,,0.00,WeatherDisplay:10.37,2013-02-22 09:29:00,
2013-02-22 03:35:00,42.8,39.8,29.77,NW,315,3.0,4.0,89,0.00,CLR,,0.00,WeatherDisplay:10.37,2013-02-22 09:35:00,
2013-02-22 03:40:00,42.8,40.1,29.77,WNW,296,1.0,3.0,90,0.00,CLR,,0.00,WeatherDisplay:10.37,2013-02-22 09:40:00,
2013-02-22 03:44:00,42.8,40.6,29.77,West,270,1.0,2.0,92,0.00,CLR,,0.00,WeatherDisplay:10.37,2013-02-22 09:44:00,
2013-02-22 03:49:00,43.2,41.0,29.78,West,266,0.0,2.0,92,0.00,CLR,,0.00,WeatherDisplay:10.37,2013-02-22 09:49:00,
2013-02-22 03:55:00,43.9,41.4,29.78,NW,315,1.1,1.1,91,0.00,CLR,,0.00,WeatherDisplay:10.37,2013-02-22 09:55:00,
2013-02-22 04:00:00,44.8,41.1,29.78,West,270,1.1,1.6,87,0.00,CLR,,0.00,WeatherDisplay:10.37,2013-02-22 10:00:00,
2013-02-22 04:05:00,44.8,41.1,29.78,West,270,2.3,2.3,87,0.00,CLR,,0.00,WeatherDisplay:10.37,2013-02-22 10:05:00,
2013-02-22 04:10:00,45.7,40.8,29.79,West,270,2.3,2.3,83,0.00,CLR,,0.00,WeatherDisplay:10.37,2013-02-22 10:10:00,
2013-02-22 04:15:00,46.0,40.9,29.79,West,270,1.1,0.0,82,0.00,CLR,,0.00,WeatherDisplay:10.37,2013-02-22 10:15:00,
2013-02-22 04:20:00,46.4,40.6,29.80,West,270,0.0,0.0,80,0.00,CLR,,0.00,WeatherDisplay:10.37,2013-02-22 10:20:00,
2013-02-22 04:26:00,46.6,40.4,29.79,East,90,1.1,0.0,79,0.00,CLR,,0.00,WeatherDisplay:10.37,2013-02-22 10:26:00,
2013-02-22 04:31:00,46.8,40.6,29.80,NW,315,3.5,3.5,79,0.00,CLR,,0.00,WeatherDisplay:10.37,2013-02-22 10:31:00,
2013-02-22 04:36:00,47.7,40.8,29.80,West,270,3.5,3.5,77,0.00,CLR,,0.00,WeatherDisplay:10.37,2013-02-22 10:36:00,
2013-02-22 04:41:00,48.2,40.6,29.80,NW,315,1.1,1.1,75,0.00,CLR,,0.00,WeatherDisplay:10.37,2013-02-22 10:41:00,
2013-02-22 04:46:00,48.6,40.6,29.80,North,0,3.5,3.5,74,0.00,CLR,,0.00,WeatherDisplay:10.37,2013-02-22 10:46:00,
2013-02-22 04:51:00,48.7,40.8,29.81,North,0,3.5,3.5,74,0.00,CLR,,0.00,WeatherDisplay:10.37,2013-02-22 10:51:00,
2013-02-22 04:56:00,48.7,40.8,29.80,NW,315,3.5,3.5,74,0.00,CLR,,0.00,WeatherDisplay:10.37,2013-02-22 10:56:00,
2013-02-22 05:01:00,48.9,41.3,29.81,NW,315,2.3,2.3,75,0.00,CLR,,0.00,WeatherDisplay:10.37,2013-02-22 11:01:00,
2013-02-22 05:07:00,48.7,41.5,29.82,North,0,3.5,3.5,76,0.00,CLR,,0.00,WeatherDisplay:10.37,2013-02-22 11:07:00,
2013-02-22 05:12:00,48.7,41.8,29.81,NW,315,3.5,3.5,77,0.00,CLR,,0.00,WeatherDisplay:10.37,2013-02-22 11:12:00,
2013-02-22 05:17:00,48.7,42.2,29.82,West,270,3.5,3.5,78,0.00,CLR,,0.00,WeatherDisplay:10.37,2013-02-22 11:17:00,
2013-02-22 05:23:00,48.7,42.2,29.83,North,0,5.8,5.8,78,0.00,CLR,,0.00,WeatherDisplay:10.37,2013-02-22 11:23:00,
2013-02-22 05:28:00,48.7,42.5,29.83,NNW,338,3.5,3.5,79,0.00,CLR,,0.00,WeatherDisplay:10.37,2013-02-22 11:28:00,
2013-02-22 05:33:00,48.7,42.8,29.84,West,270,3.5,3.5,80,0.00,CLR,,0.00,WeatherDisplay:10.37,2013-02-22 11:33:00,
2013-02-22 05:38:00,48.6,43.0,29.85,North,0,4.6,4.6,81,0.00,CLR,,0.00,WeatherDisplay:10.37,2013-02-22 11:38:00,
2013-02-22 05:43:00,48.6,43.0,29.87,West,270,3.5,3.5,81,0.00,CLR,,0.00,WeatherDisplay:10.37,2013-02-22 11:43:00,
2013-02-22 05:48:00,48.4,43.1,29.86,North,0,5.8,5.8,82,0.00,CLR,,0.00,WeatherDisplay:10.37,2013-02-22 11:48:00,
2013-02-22 05:53:00,48.4,43.1,29.83,North,0,5.8,5.8,82,0.00,CLR,,0.00,WeatherDisplay:10.37,2013-02-22 11:53:00,
2013-02-22 05:59:00,48.2,43.3,29.86,NW,315,4.6,4.6,83,0.00,CLR,,0.00,WeatherDisplay:10.37,2013-02-22 11:59:00,
2013-02-22 06:04:00,48.0,43.4,29.88,NW,315,5.8,5.8,84,0.00,CLR,,0.00,WeatherDisplay:10.37,2013-02-22 12:04:00,
2013-02-22 06:09:00,47.8,43.5,29.85,NNE,22,5.8,5.8,85,0.00,CLR,,0.00,WeatherDisplay:10.37,2013-02-22 12:09:00,
2013-02-22 06:14:00,47.7,43.4,29.85,NW,315,8.1,8.1,85,0.00,CLR,,0.00,WeatherDisplay:10.37,2013-02-22 12:14:00,
2013-02-22 06:19:00,47.7,43.4,29.88,West,270,5.8,5.8,85,0.00,CLR,,0.00,WeatherDisplay:10.37,2013-02-22 12:19:00,
2013-02-22 06:24:00,47.6,43.0,29.88,NW,305,3.0,6.0,84,0.00,CLR,,0.00,WeatherDisplay:10.37,2013-02-22 12:24:00,
2013-02-22 06:29:00,47.5,42.6,29.87,NW,326,3.0,10.0,83,0.00,CLR,,0.00,WeatherDisplay:10.37,2013-02-22 12:29:00,
2013-02-22 06:35:00,47.1,41.9,29.87,NW,315,8.1,8.1,82,0.00,CLR,,0.00,WeatherDisplay:10.37,2013-02-22 12:35:00,
2013-02-22 06:40:00,47.1,41.9,29.88,NW,315,3.5,3.5,82,0.00,CLR,,0.00,WeatherDisplay:10.37,2013-02-22 12:40:00,
2013-02-22 06:45:00,46.9,41.7,29.88,NW,315,8.1,8.1,82,0.00,CLR,,0.00,WeatherDisplay:10.37,2013-02-22 12:45:00,
2013-02-22 06:51:00,46.9,41.4,29.88,North,0,5.8,5.8,81,0.00,CLR,,0.00,WeatherDisplay:10.37,2013-02-22 12:51:00,
2013-02-22 06:56:00,46.8,41.2,29.88,NNW,338,4.6,4.6,81,0.00,CLR,,0.00,WeatherDisplay:10.37,2013-02-22 12:56:00,
2013-02-22 07:01:00,46.6,41.4,29.89,NW,315,6.9,6.9,82,0.00,CLR,,0.00,WeatherDisplay:10.37,2013-02-22 13:01:00,
2013-02-22 07:06:00,46.4,41.2,29.89,North,0,6.9,6.9,82,0.00,CLR,,0.00,WeatherDisplay:10.37,2013-02-22 13:06:00,
2013-02-22 07:11:00,46.4,41.2,29.89,North,0,5.8,5.8,82,0.00,CLR,,0.00,WeatherDisplay:10.37,2013-02-22 13:11:00,
2013-02-22 07:16:00,46.2,41.0,29.89,NW,315,6.9,6.9,82,0.00,CLR,,0.00,WeatherDisplay:10.37,2013-02-22 13:16:00,
2013-02-22 07:21:00,46.0,41.2,29.90,WNW,292,4.6,4.6,83,0.00,CLR,,0.00,WeatherDisplay:10.37,2013-02-22 13:21:00,
2013-02-22 07:27:00,46.0,41.2,29.89,NW,315,8.1,8.1,83,0.00,CLR,,0.00,WeatherDisplay:10.37,2013-02-22 13:27:00,
2013-02-22 07:32:00,45.9,41.0,29.90,NW,315,8.1,8.1,83,0.00,CLR,,0.00,WeatherDisplay:10.37,2013-02-22 13:32:00,
2013-02-22 07:37:00,45.9,41.0,29.90,NW,315,6.9,6.9,83,0.00,CLR,,0.00,WeatherDisplay:10.37,2013-02-22 13:37:00,
2013-02-22 07:42:00,45.9,41.0,29.90,North,0,11.5,11.5,83,0.00,CLR,,0.00,WeatherDisplay:10.37,2013-02-22 13:42:00,
2013-02-22 07:47:00,45.9,41.3,29.90,NW,315,6.9,6.9,84,0.00,CLR,,0.00,WeatherDisplay:10.37,2013-02-22 13:47:00,
2013-02-22 07:53:00,45.9,41.3,29.89,NE,45,10.7,10.7,84,0.00,CLR,,0.00,WeatherDisplay:10.37,2013-02-22 13:53:00,
2013-02-22 07:58:00,45.9,41.3,29.89,East,90,8.1,8.1,84,0.00,CLR,,0.00,WeatherDisplay:10.37,2013-02-22 13:58:00,
2013-02-22 08:03:00,45.9,41.3,29.90,NNE,22,8.1,8.1,84,0.00,CLR,,0.00,WeatherDisplay:10.37,2013-02-22 14:03:00,
2013-02-22 08:08:00,45.9,41.3,29.91,NW,315,8.1,8.1,84,0.00,CLR,,0.00,WeatherDisplay:10.37,2013-02-22 14:08:00,
2013-02-22 08:13:00,45.9,41.3,29.90,NNW,338,4.6,4.6,84,0.00,CLR,,0.00,WeatherDisplay:10.37,2013-02-22 14:13:00,
2013-02-22 08:18:00,46.0,41.5,29.91,North,0,10.4,10.4,84,0.00,CLR,,0.00,WeatherDisplay:10.37,2013-02-22 14:18:00,
2013-02-22 08:23:00,45.9,41.0,29.91,North,0,10.4,10.4,83,0.00,CLR,,0.00,WeatherDisplay:10.37,2013-02-22 14:23:00,
2013-02-22 08:28:00,46.0,41.2,29.91,NNE,22,7.6,7.6,83,0.00,CLR,,0.00,WeatherDisplay:10.37,2013-02-22 14:28:00,
2013-02-22 08:34:00,46.0,41.2,29.91,North,0,8.1,8.1,83,0.00,CLR,,0.00,WeatherDisplay:10.37,2013-02-22 14:34:00,
2013-02-22 08:39:00,46.0,41.2,29.91,North,0,5.8,5.8,83,0.00,CLR,,0.00,WeatherDisplay:10.37,2013-02-22 14:39:00,
2013-02-22 08:44:00,46.0,40.9,29.91,North,0,10.4,10.4,82,0.00,CLR,,0.00,WeatherDisplay:10.37,2013-02-22 14:44:00,
2013-02-22 08:49:00,46.4,41.2,29.91,NNE,22,5.8,5.8,82,0.00,CLR,,0.00,WeatherDisplay:10.37,2013-02-22 14:49:00,
2013-02-22 08:54:00,46.4,40.9,29.91,North,0,6.9,6.9,81,0.00,CLR,,0.00,WeatherDisplay:10.37,2013-02-22 14:54:00,
2013-02-22 08:59:00,46.6,40.7,29.92,North,7,5.0,8.0,80,0.00,CLR,,0.00,WeatherDisplay:10.37,2013-02-22 14:59:00,
2013-02-22 09:05:00,46.8,40.9,29.92,NNW,338,9.2,9.2,80,0.00,CLR,,0.00,WeatherDisplay:10.37,2013-02-22 15:05:00,
2013-02-22 09:10:00,46.9,40.8,29.91,North,0,5.8,5.8,79,0.00,CLR,,0.00,WeatherDisplay:10.37,2013-02-22 15:10:00,
2013-02-22 09:15:00,47.3,40.8,29.91,West,270,8.1,8.1,78,0.00,CLR,,0.00,WeatherDisplay:10.37,2013-02-22 15:15:00,
2013-02-22 09:20:00,47.8,41.3,29.92,North,0,6.9,6.9,78,0.00,CLR,,0.00,WeatherDisplay:10.37,2013-02-22 15:20:00,
2013-02-22 09:25:00,48.2,41.0,29.92,NW,315,6.9,6.9,76,0.00,CLR,,0.00,WeatherDisplay:10.37,2013-02-22 15:25:00,
2013-02-22 09:30:00,49.1,41.9,29.92,North,0,8.1,8.1,76,0.00,CLR,,0.00,WeatherDisplay:10.37,2013-02-22 15:30:00,
2013-02-22 09:36:00,49.5,41.9,29.91,North,0,8.1,8.1,75,0.00,CLR,,0.00,WeatherDisplay:10.37,2013-02-22 15:36:00,
2013-02-22 09:41:00,49.6,41.7,29.91,North,0,8.1,8.1,74,0.00,CLR,,0.00,WeatherDisplay:10.37,2013-02-22 15:41:00,
2013-02-22 09:46:00,50.2,41.1,29.91,West,270,6.9,6.9,71,0.00,CLR,,0.00,WeatherDisplay:10.37,2013-02-22 15:46:00,
2013-02-22 09:51:00,50.2,41.1,29.92,North,0,6.9,6.9,71,0.00,CLR,,0.00,WeatherDisplay:10.37,2013-02-22 15:51:00,
2013-02-22 09:56:00,50.5,41.5,29.91,NE,45,5.8,5.8,71,0.00,CLR,,0.00,WeatherDisplay:10.37,2013-02-22 15:56:00,
2013-02-22 10:01:00,50.7,40.9,29.91,NE,45,6.9,6.9,69,0.00,CLR,,0.00,WeatherDisplay:10.37,2013-02-22 16:01:00,
2013-02-22 10:07:00,50.7,40.9,29.91,NE,45,6.9,6.9,69,0.00,CLR,,0.00,WeatherDisplay:10.37,2013-02-22 16:07:00,
2013-02-22 10:12:00,50.0,39.8,29.91,NW,315,8.1,8.1,68,0.00,CLR,,0.00,WeatherDisplay:10.37,2013-02-22 16:12:00,
2013-02-22 10:17:00,50.2,40.0,29.91,NNE,22,5.8,5.8,68,0.00,CLR,,0.00,WeatherDisplay:10.37,2013-02-22 16:17:00,
2013-02-22 10:23:00,50.7,40.5,29.92,NNE,22,6.9,6.9,68,0.00,CLR,,0.00,WeatherDisplay:10.37,2013-02-22 16:23:00,
2013-02-22 10:28:00,50.9,40.3,29.92,North,0,6.9,6.9,67,0.00,CLR,,0.00,WeatherDisplay:10.37,2013-02-22 16:28:00,
2013-02-22 10:33:00,50.7,40.2,29.92,West,270,8.1,8.1,67,0.00,CLR,,0.00,WeatherDisplay:10.37,2013-02-22 16:33:00,
2013-02-22 10:38:00,51.1,40.1,29.93,NW,315,5.8,5.8,66,0.00,CLR,,0.00,WeatherDisplay:10.37,2013-02-22 16:38:00,
2013-02-22 10:43:00,50.7,39.8,29.93,NNW,338,5.8,5.8,66,0.00,CLR,,0.00,WeatherDisplay:10.37,2013-02-22 16:43:00,
2013-02-22 10:48:00,51.4,40.8,29.93,ENE,68,6.9,6.9,67,0.00,CLR,,0.00,WeatherDisplay:10.37,2013-02-22 16:48:00,
2013-02-22 10:53:00,52.2,40.3,29.92,North,0,4.6,4.6,64,0.00,CLR,,0.00,WeatherDisplay:10.37,2013-02-22 16:53:00,
2013-02-22 10:59:00,51.4,39.7,29.93,NNE,22,6.9,6.9,64,0.00,CLR,,0.00,WeatherDisplay:10.37,2013-02-22 16:59:00,
2013-02-22 11:04:00,51.4,40.5,29.93,NE,45,5.8,5.8,66,0.00,CLR,,0.00,WeatherDisplay:10.37,2013-02-22 17:04:00,
2013-02-22 11:09:00,51.6,40.2,29.92,North,0,8.1,8.1,65,0.00,CLR,,0.00,WeatherDisplay:10.37,2013-02-22 17:09:00,
2013-02-22 11:14:00,51.4,40.1,29.92,NW,315,6.9,6.9,65,0.00,CLR,,0.00,WeatherDisplay:10.37,2013-02-22 17:14:00,
2013-02-22 11:19:00,51.8,40.0,29.92,NNW,331,5.0,6.0,64,0.00,CLR,,0.00,WeatherDisplay:10.37,2013-02-22 17:19:00,
2013-02-22 11:24:00,52.2,40.3,29.92,North,0,5.8,5.8,64,0.00,CLR,,0.00,WeatherDisplay:10.37,2013-02-22 17:24:00,
2013-02-22 11:29:00,52.5,40.6,29.91,North,356,6.0,8.0,64,0.00,CLR,,0.00,WeatherDisplay:10.37,2013-02-22 17:29:00,
2013-02-22 11:34:00,52.7,40.5,29.91,NW,315,6.9,6.9,63,0.00,CLR,,0.00,WeatherDisplay:10.37,2013-02-22 17:34:00,
2013-02-22 11:40:00,53.1,40.8,29.91,NW,315,5.8,5.8,63,0.00,CLR,,0.00,WeatherDisplay:10.37,2013-02-22 17:40:00,
2013-02-22 11:45:00,53.4,40.7,29.90,North,0,8.1,8.1,62,0.00,CLR,,0.00,WeatherDisplay:10.37,2013-02-22 17:45:00,
2013-02-22 11:50:00,53.6,40.5,29.89,NNE,22,5.8,5.8,61,0.00,CLR,,0.00,WeatherDisplay:10.37,2013-02-22 17:50:00,
2013-02-22 11:55:00,53.8,41.1,29.89,North,0,4.6,4.6,62,0.00,CLR,,0.00,WeatherDisplay:10.37,2013-02-22 17:55:00,
2013-02-22 12:01:00,54.1,41.0,29.89,NW,315,5.8,5.8,61,0.00,CLR,,0.00,WeatherDisplay:10.37,2013-02-22 18:01:00,
2013-02-22 12:06:00,54.1,41.0,29.88,NW,315,3.5,3.5,61,0.00,CLR,,0.00,WeatherDisplay:10.37,2013-02-22 18:06:00,
2013-02-22 12:11:00,54.1,40.6,29.88,North,0,8.1,8.1,60,0.00,CLR,,0.00,WeatherDisplay:10.37,2013-02-22 18:11:00,
2013-02-22 12:17:00,54.1,40.6,29.87,NE,45,5.8,5.8,60,0.00,CLR,,0.00,WeatherDisplay:10.37,2013-02-22 18:17:00,
2013-02-22 12:22:00,54.9,41.2,29.87,NE,45,6.9,6.9,60,0.00,CLR,,0.00,WeatherDisplay:10.37,2013-02-22 18:22:00,
2013-02-22 12:27:00,55.8,41.6,29.87,North,0,8.1,8.1,59,0.00,CLR,,0.00,WeatherDisplay:10.37,2013-02-22 18:27:00,
2013-02-22 12:32:00,55.0,40.5,29.86,South,180,8.1,8.1,58,0.00,CLR,,0.00,WeatherDisplay:10.37,2013-02-22 18:32:00,
2013-02-22 12:38:00,55.6,41.0,29.87,North,0,4.6,4.6,58,0.00,CLR,,0.00,WeatherDisplay:10.37,2013-02-22 18:38:00,
2013-02-22 12:43:00,55.8,40.7,29.87,East,90,4.6,4.6,57,0.00,CLR,,0.00,WeatherDisplay:10.37,2013-02-22 18:43:00,
2013-02-22 12:48:00,56.3,41.3,29.87,North,0,8.1,8.1,57,0.00,CLR,,0.00,WeatherDisplay:10.37,2013-02-22 18:48:00,
2013-02-22 12:53:00,57.0,41.9,29.87,North,0,8.1,8.1,57,0.00,CLR,,0.00,WeatherDisplay:10.37,2013-02-22 18:53:00,
2013-02-22 12:58:00,56.3,40.8,29.87,North,0,5.8,5.8,56,0.00,CLR,,0.00,WeatherDisplay:10.37,2013-02-22 18:58:00,
2013-02-22 13:03:00,56.3,41.3,29.87,North,0,3.5,3.5,57,0.00,CLR,,0.00,WeatherDisplay:10.37,2013-02-22 19:03:00,
2013-02-22 13:08:00,57.4,41.3,29.87,North,0,8.1,8.1,55,0.00,CLR,,0.00,WeatherDisplay:10.37,2013-02-22 19:08:00,
2013-02-22 13:14:00,57.6,41.5,29.88,NE,45,3.5,3.8,55,0.00,CLR,,0.00,WeatherDisplay:10.37,2013-02-22 19:14:00,
2013-02-22 13:19:00,58.5,41.9,29.88,NE,45,5.8,5.8,54,0.00,CLR,,0.00,WeatherDisplay:10.37,2013-02-22 19:19:00,
2013-02-22 13:24:00,58.3,42.2,29.87,SW,225,5.8,5.8,55,0.00,CLR,,0.00,WeatherDisplay:10.37,2013-02-22 19:24:00,
2013-02-22 13:29:00,59.5,42.4,29.87,North,0,9.2,9.2,53,0.00,CLR,,0.00,WeatherDisplay:10.37,2013-02-22 19:29:00,
2013-02-22 13:34:00,59.0,41.4,29.87,North,0,5.8,5.8,52,0.00,CLR,,0.00,WeatherDisplay:10.37,2013-02-22 19:34:00,
2013-02-22 13:39:00,58.8,41.7,29.86,North,1,3.0,7.0,53,0.00,CLR,,0.00,WeatherDisplay:10.37,2013-02-22 19:39:00,
2013-02-22 13:44:00,58.5,41.9,29.86,NW,315,4.6,4.6,54,0.00,CLR,,0.00,WeatherDisplay:10.37,2013-02-22 19:44:00,
2013-02-22 13:50:00,58.6,42.0,29.85,NE,45,5.8,5.8,54,0.00,CLR,,0.00,WeatherDisplay:10.37,2013-02-22 19:50:00,
2013-02-22 13:55:00,59.0,41.9,29.85,East,90,5.8,5.8,53,0.00,CLR,,0.00,WeatherDisplay:10.37,2013-02-22 19:55:00,
2013-02-22 14:00:00,58.5,41.9,29.85,North,0,8.1,8.1,54,0.00,CLR,,0.00,WeatherDisplay:10.37,2013-02-22 20:00:00,
2013-02-22 14:05:00,58.5,41.9,29.84,North,0,8.1,8.1,54,0.00,CLR,,0.00,WeatherDisplay:10.37,2013-02-22 20:05:00,
2013-02-22 14:11:00,60.3,42.6,29.85,SE,135,5.8,5.8,52,0.00,CLR,,0.00,WeatherDisplay:10.37,2013-02-22 20:11:00,
2013-02-22 14:16:00,61.5,42.7,29.84,North,0,5.8,5.8,50,0.00,CLR,,0.00,WeatherDisplay:10.37,2013-02-22 20:16:00,
2013-02-22 14:22:00,60.1,40.8,29.85,NNE,22,5.8,5.8,49,0.00,CLR,,0.00,WeatherDisplay:10.37,2013-02-22 20:22:00,
2013-02-22 14:27:00,59.2,41.1,29.84,NW,315,5.8,5.8,51,0.00,CLR,,0.00,WeatherDisplay:10.37,2013-02-22 20:27:00,
2013-02-22 14:32:00,59.5,41.9,29.84,West,270,6.9,6.9,52,0.00,CLR,,0.00,WeatherDisplay:10.37,2013-02-22 20:32:00,
2013-02-22 14:37:00,59.9,42.2,29.83,North,0,6.9,6.9,52,0.00,CLR,,0.00,WeatherDisplay:10.37,2013-02-22 20:37:00,
2013-02-22 14:42:00,61.2,42.4,29.83,West,270,5.8,5.8,50,0.00,CLR,,0.00,WeatherDisplay:10.37,2013-02-22 20:42:00,
2013-02-22 14:48:00,60.6,41.9,29.83,North,0,10.4,10.4,50,0.00,CLR,,0.00,WeatherDisplay:10.37,2013-02-22 20:48:00,
2013-02-22 14:53:00,61.2,42.4,29.83,NNE,22,5.8,5.8,50,0.00,CLR,,0.00,WeatherDisplay:10.37,2013-02-22 20:53:00,
2013-02-22 14:58:00,61.0,42.2,29.83,North,0,3.5,3.5,50,0.00,CLR,,0.00,WeatherDisplay:10.37,2013-02-22 20:58:00,
2013-02-22 15:03:00,61.7,42.3,29.84,NE,45,5.8,5.8,49,0.00,CLR,,0.00,WeatherDisplay:10.37,2013-02-22 21:03:00,
2013-02-22 15:08:00,61.5,42.2,29.83,North,0,6.9,6.9,49,0.00,CLR,,0.00,WeatherDisplay:10.37,2013-02-22 21:08:00,
2013-02-22 15:13:00,61.3,41.5,29.83,North,0,5.8,5.8,48,0.00,CLR,,0.00,WeatherDisplay:10.37,2013-02-22 21:13:00,
2013-02-22 15:18:00,61.3,42.0,29.83,West,270,3.5,3.5,49,0.00,CLR,,0.00,WeatherDisplay:10.37,2013-02-22 21:18:00,
2013-02-22 15:23:00,62.1,42.1,29.82,North,0,5.8,5.8,48,0.00,CLR,,0.00,WeatherDisplay:10.37,2013-02-22 21:23:00,
2013-02-22 15:28:00,61.5,41.6,29.83,NE,45,5.8,5.8,48,0.00,CLR,,0.00,WeatherDisplay:10.37,2013-02-22 21:28:00,
2013-02-22 15:34:00,60.8,41.5,29.83,NE,45,8.1,8.1,49,0.00,CLR,,0.00,WeatherDisplay:10.37,2013-02-22 21:34:00,
2013-02-22 15:39:00,60.4,42.2,29.82,NE,45,5.8,5.8,51,0.00,CLR,,0.00,WeatherDisplay:10.37,2013-02-22 21:39:00,
2013-02-22 15:44:00,61.0,42.7,29.82,North,0,3.8,3.8,51,0.00,CLR,,0.00,WeatherDisplay:10.37,2013-02-22 21:44:00,
2013-02-22 15:49:00,61.3,42.5,29.83,NW,315,6.9,6.9,50,0.00,CLR,,0.00,WeatherDisplay:10.37,2013-02-22 21:49:00,
2013-02-22 15:55:00,61.5,43.2,29.82,North,360,3.0,8.0,51,0.00,CLR,,0.00,WeatherDisplay:10.37,2013-02-22 21:55:00,
2013-02-22 16:00:00,61.0,41.7,29.82,NW,315,5.8,5.8,49,0.00,CLR,,0.00,WeatherDisplay:10.37,2013-02-22 22:00:00,
2013-02-22 16:05:00,61.0,41.7,29.82,NW,315,5.8,5.8,49,0.00,CLR,,0.00,WeatherDisplay:10.37,2013-02-22 22:05:00,
2013-02-22 16:11:00,61.0,42.2,29.82,WNW,292,3.5,3.5,50,0.00,CLR,,0.00,WeatherDisplay:10.37,2013-02-22 22:11:00,
2013-02-22 16:17:00,61.2,42.4,29.82,NW,315,6.0,6.0,50,0.00,CLR,,0.00,WeatherDisplay:10.37,2013-02-22 22:17:00,
2013-02-22 16:22:00,60.8,42.5,29.82,North,0,8.1,8.1,51,0.00,CLR,,0.00,WeatherDisplay:10.37,2013-02-22 22:22:00,
2013-02-22 16:27:00,60.8,42.5,29.82,North,0,3.5,3.5,51,0.00,CLR,,0.00,WeatherDisplay:10.37,2013-02-22 22:27:00,
2013-02-22 16:33:00,61.3,42.5,29.82,NW,315,5.8,5.8,50,0.00,CLR,,0.00,WeatherDisplay:10.37,2013-02-22 22:33:00,
2013-02-22 16:38:00,61.0,42.2,29.82,North,0,4.6,4.6,50,0.00,CLR,,0.00,WeatherDisplay:10.37,2013-02-22 22:38:00,
2013-02-22 16:54:00,60.1,42.9,29.81,North,0,5.8,5.8,53,0.00,CLR,,0.00,WeatherDisplay:10.37,2013-02-22 22:54:00,
2013-02-22 16:59:00,59.9,42.7,29.82,NE,45,4.6,4.6,53,0.00,CLR,,0.00,WeatherDisplay:10.37,2013-02-22 22:59:00,
2013-02-22 17:04:00,59.9,42.7,29.82,SE,135,4.6,4.6,53,0.00,CLR,,0.00,WeatherDisplay:10.37,2013-02-22 23:04:00,
2013-02-22 17:09:00,59.9,43.2,29.81,North,0,3.5,3.5,54,0.00,CLR,,0.00,WeatherDisplay:10.37,2013-02-22 23:09:00,
2013-02-22 18:01:00,58.8,42.2,29.82,North,0,1.1,1.1,54,0.00,CLR,,0.00,WeatherDisplay:10.37,2013-02-23 00:01:00,
2013-02-22 18:06:00,58.8,42.2,29.83,North,0,1.1,1.1,54,0.00,CLR,,0.00,WeatherDisplay:10.37,2013-02-23 00:06:00,
2013-02-22 18:12:00,58.3,42.2,29.83,NW,315,1.1,1.1,55,0.00,CLR,,0.00,WeatherDisplay:10.37,2013-02-23 00:12:00,
2013-02-22 18:17:00,57.7,41.7,29.83,NW,315,2.3,2.3,55,0.00,CLR,,0.00,WeatherDisplay:10.37,2013-02-23 00:17:00,
2013-02-22 18:22:00,57.6,41.5,29.84,NW,315,2.3,0.0,55,0.00,CLR,,0.00,WeatherDisplay:10.37,2013-02-23 00:22:00,
2013-02-22 18:27:00,57.4,41.3,29.83,North,0,1.1,0.0,55,0.00,CLR,,0.00,WeatherDisplay:10.37,2013-02-23 00:27:00,
2013-02-22 18:32:00,57.0,41.9,29.83,NW,315,1.1,1.1,57,0.00,CLR,,0.00,WeatherDisplay:10.37,2013-02-23 00:32:00,
2013-02-22 18:37:00,57.0,41.9,29.83,NW,315,1.1,1.1,57,0.00,CLR,,0.00,WeatherDisplay:10.37,2013-02-23 00:37:00,
2013-02-22 18:42:00,56.8,41.8,29.84,NW,315,1.1,1.1,57,0.00,CLR,,0.00,WeatherDisplay:10.37,2013-02-23 00:42:00,
2013-02-22 18:47:00,56.7,41.6,29.85,NW,315,1.1,0.0,57,0.00,CLR,,0.00,WeatherDisplay:10.37,2013-02-23 00:47:00,
2013-02-22 18:53:00,56.5,41.4,29.84,NW,315,1.1,0.0,57,0.00,CLR,,0.00,WeatherDisplay:10.37,2013-02-23 00:53:00,
2013-02-22 18:58:00,56.3,41.3,29.84,NW,315,0.0,0.0,57,0.00,CLR,,0.00,WeatherDisplay:10.37,2013-02-23 00:58:00,
2013-02-22 19:03:00,56.1,41.5,29.85,NW,315,2.3,2.3,58,0.00,CLR,,0.00,WeatherDisplay:10.37,2013-02-23 01:03:00,
2013-02-22 19:08:00,55.9,41.8,29.84,NW,315,2.3,2.3,59,0.00,CLR,,0.00,WeatherDisplay:10.37,2013-02-23 01:08:00,
2013-02-22 19:14:00,55.8,41.6,29.84,NW,315,3.8,3.8,59,0.00,CLR,,0.00,WeatherDisplay:10.37,2013-02-23 01:14:00,
2013-02-22 19:19:00,55.8,41.2,29.85,WNW,292,5.8,5.8,58,0.00,CLR,,0.00,WeatherDisplay:10.37,2013-02-23 01:19:00,
2013-02-22 19:24:00,55.7,40.7,29.85,WNW,301,2.0,5.0,57,0.00,CLR,,0.00,WeatherDisplay:10.37,2013-02-23 01:24:00,
2013-02-22 19:30:00,55.4,40.0,29.85,North,0,3.5,3.5,56,0.00,CLR,,0.00,WeatherDisplay:10.37,2013-02-23 01:30:00,
2013-02-22 19:35:00,55.4,40.0,29.86,NW,315,3.5,3.5,56,0.00,CLR,,0.00,WeatherDisplay:10.37,2013-02-23 01:35:00,
2013-02-22 19:40:00,55.0,39.6,29.86,NW,315,5.8,5.8,56,0.00,CLR,,0.00,WeatherDisplay:10.37,2013-02-23 01:40:00,
2013-02-22 19:45:00,54.9,39.0,29.86,North,0,3.5,3.5,55,0.00,CLR,,0.00,WeatherDisplay:10.37,2013-02-23 01:45:00,
2013-02-22 19:50:00,54.7,38.8,29.86,SSE,158,3.5,3.5,55,0.00,CLR,,0.00,WeatherDisplay:10.37,2013-02-23 01:50:00,
2013-02-22 19:56:00,54.5,38.7,29.87,NW,315,3.5,3.5,55,0.00,CLR,,0.00,WeatherDisplay:10.37,2013-02-23 01:56:00,
2013-02-22 20:01:00,54.5,38.7,29.87,North,0,3.5,3.5,55,0.00,CLR,,0.00,WeatherDisplay:10.37,2013-02-23 02:01:00,
2013-02-22 20:06:00,54.5,38.7,29.87,North,0,3.5,3.5,55,0.00,CLR,,0.00,WeatherDisplay:10.37,2013-02-23 02:06:00,
2013-02-22 20:11:00,54.3,38.5,29.87,North,0,3.5,3.5,55,0.00,CLR,,0.00,WeatherDisplay:10.37,2013-02-23 02:11:00,
2013-02-22 20:16:00,54.1,38.3,29.87,West,270,2.3,2.3,55,0.00,CLR,,0.00,WeatherDisplay:10.37,2013-02-23 02:16:00,
2013-02-22 20:21:00,54.1,38.8,29.87,NW,315,2.3,2.3,56,0.00,CLR,,0.00,WeatherDisplay:10.37,2013-02-23 02:21:00,
2013-02-22 20:27:00,54.1,38.8,29.88,NW,315,3.5,3.5,56,0.00,CLR,,0.00,WeatherDisplay:10.37,2013-02-23 02:27:00,
2013-02-22 20:32:00,54.1,39.2,29.88,NW,315,3.5,3.5,57,0.00,CLR,,0.00,WeatherDisplay:10.37,2013-02-23 02:32:00,
2013-02-22 20:37:00,54.1,39.2,29.88,NW,315,4.6,4.6,57,0.00,CLR,,0.00,WeatherDisplay:10.37,2013-02-23 02:37:00,
2013-02-22 20:42:00,54.1,38.8,29.88,NW,315,4.6,4.6,56,0.00,CLR,,0.00,WeatherDisplay:10.37,2013-02-23 02:42:00,
2013-02-22 20:48:00,54.1,38.8,29.88,NW,315,3.5,3.5,56,0.00,CLR,,0.00,WeatherDisplay:10.37,2013-02-23 02:48:00,
2013-02-22 20:53:00,54.0,38.6,29.89,West,270,4.6,4.6,56,0.00,CLR,,0.00,WeatherDisplay:10.37,2013-02-23 02:53:00,
2013-02-22 20:58:00,53.8,38.0,29.88,NW,315,5.8,5.8,55,0.00,CLR,,0.00,WeatherDisplay:10.37,2013-02-23 02:58:00,
2013-02-22 21:03:00,53.2,38.4,29.89,NE,45,4.6,4.6,57,0.00,CLR,,0.00,WeatherDisplay:10.37,2013-02-23 03:03:00,
2013-02-22 21:09:00,52.9,38.1,29.90,North,0,8.1,8.1,57,0.00,CLR,,0.00,WeatherDisplay:10.37,2013-02-23 03:09:00,
2013-02-22 21:14:00,52.5,37.3,29.91,NNW,338,5.8,5.8,56,0.00,CLR,,0.00,WeatherDisplay:10.37,2013-02-23 03:14:00,
2013-02-22 21:19:00,52.2,36.5,29.91,North,0,8.1,8.1,55,0.00,CLR,,0.00,WeatherDisplay:10.37,2013-02-23 03:19:00,
2013-02-22 21:24:00,51.8,36.1,29.90,NW,315,4.6,4.6,55,0.00,CLR,,0.00,WeatherDisplay:10.37,2013-02-23 03:24:00,
2013-02-22 21:29:00,51.6,36.4,29.91,NNW,334,3.0,10.0,56,0.00,CLR,,0.00,WeatherDisplay:10.37,2013-02-23 03:29:00,
2013-02-22 21:34:00,51.3,36.1,29.90,NNW,337,2.0,6.0,56,0.00,CLR,,0.00,WeatherDisplay:10.37,2013-02-23 03:34:00,
2013-02-22 21:39:00,51.1,35.9,29.91,NW,323,2.0,6.0,56,0.00,CLR,,0.00,WeatherDisplay:10.37,2013-02-23 03:39:00,
2013-02-22 21:44:00,50.8,35.7,29.91,NW,319,3.0,7.0,56,0.00,CLR,,0.00,WeatherDisplay:10.37,2013-02-23 03:44:00,
2013-02-22 21:49:00,50.6,35.4,29.91,NW,320,3.0,7.0,56,0.00,CLR,,0.00,WeatherDisplay:10.37,2013-02-23 03:49:00,
2013-02-22 21:54:00,50.4,35.2,29.91,NW,322,2.0,6.0,56,0.00,CLR,,0.00,WeatherDisplay:10.37,2013-02-23 03:54:00,
2013-02-22 21:59:00,50.2,35.1,29.92,North,0,4.6,4.6,56,0.00,CLR,,0.00,WeatherDisplay:10.37,2013-02-23 03:59:00,
2013-02-22 22:04:00,50.2,35.1,29.91,North,353,2.0,4.0,56,0.00,CLR,,0.00,WeatherDisplay:10.37,2013-02-23 04:04:00,
2013-02-22 22:09:00,50.0,35.4,29.92,North,351,3.0,6.0,57,0.00,CLR,,0.00,WeatherDisplay:10.37,2013-02-23 04:09:00,
2013-02-22 22:14:00,50.0,35.4,29.92,NW,315,4.6,4.6,57,0.00,CLR,,0.00,WeatherDisplay:10.37,2013-02-23 04:14:00,
2013-02-22 22:19:00,49.8,35.6,29.91,North,0,4.6,4.6,58,0.00,CLR,,0.00,WeatherDisplay:10.37,2013-02-23 04:19:00,
2013-02-22 22:24:00,49.6,35.5,29.91,North,358,2.0,6.0,58,0.00,CLR,,0.00,WeatherDisplay:10.37,2013-02-23 04:24:00,
2013-02-22 22:29:00,49.5,35.3,29.91,NNW,343,2.0,5.0,58,0.00,CLR,,0.00,WeatherDisplay:10.37,2013-02-23 04:29:00,
2013-02-22 22:34:00,49.3,35.5,29.92,NNW,342,3.0,6.0,59,0.00,CLR,,0.00,WeatherDisplay:10.37,2013-02-23 04:34:00,
2013-02-22 22:39:00,49.1,35.4,29.92,NNW,342,2.0,6.0,59,0.00,CLR,,0.00,WeatherDisplay:10.37,2013-02-23 04:39:00,
2013-02-22 22:44:00,48.8,35.1,29.91,NNW,329,2.0,8.0,59,0.00,CLR,,0.00,WeatherDisplay:10.37,2013-02-23 04:44:00,
2013-02-22 22:49:00,48.6,34.9,29.92,NNW,342,1.0,7.0,59,0.00,CLR,,0.00,WeatherDisplay:10.37,2013-02-23 04:49:00,
2013-02-22 22:54:00,48.5,34.9,29.91,North,350,1.0,5.0,59,0.00,CLR,,0.00,WeatherDisplay:10.37,2013-02-23 04:54:00,
2013-02-22 22:59:00,48.4,35.1,29.91,NNW,343,2.0,6.0,60,0.00,CLR,,0.00,WeatherDisplay:10.37,2013-02-23 04:59:00,
2013-02-22 23:00:00,48.4,35.1,29.91,NW,315,5.8,5.8,60,0.00,CLR,,0.00,WeatherDisplay:10.37,2013-02-23 05:00:00,
2013-02-22 23:06:00,48.0,35.2,29.91,North,0,3.5,3.5,61,0.00,CLR,,0.00,WeatherDisplay:10.37,2013-02-23 05:06:00,
2013-02-22 23:11:00,47.8,35.4,29.91,North,0,4.6,4.6,62,0.00,CLR,,0.00,WeatherDisplay:10.37,2013-02-23 05:11:00,
2013-02-22 23:16:00,47.7,35.3,29.90,NW,315,4.6,4.6,62,0.00,CLR,,0.00,WeatherDisplay:10.37,2013-02-23 05:16:00,
2013-02-22 23:21:00,47.7,35.3,29.91,North,0,4.6,4.6,62,0.00,CLR,,0.00,WeatherDisplay:10.37,2013-02-23 05:21:00,
2013-02-22 23:26:00,47.5,35.1,29.91,East,90,3.5,3.5,62,0.00,CLR,,0.00,WeatherDisplay:10.37,2013-02-23 05:26:00,
2013-02-22 23:31:00,47.3,35.3,29.90,NW,315,3.5,3.5,63,0.00,CLR,,0.00,WeatherDisplay:10.37,2013-02-23 05:31:00,
2013-02-22 23:37:00,47.1,35.2,29.90,North,0,3.5,3.5,63,0.00,CLR,,0.00,WeatherDisplay:10.37,2013-02-23 05:37:00,
2013-02-22 23:42:00,46.9,35.0,29.90,North,0,3.5,3.5,63,0.00,CLR,,0.00,WeatherDisplay:10.37,2013-02-23 05:42:00,
2013-02-22 23:47:00,46.9,35.0,29.89,North,0,3.5,3.5,63,0.00,CLR,,0.00,WeatherDisplay:10.37,2013-02-23 05:47:00,
2013-02-22 23:52:00,46.8,34.8,29.90,North,0,3.5,3.5,63,0.00,CLR,,0.00,WeatherDisplay:10.37,2013-02-23 05:52:00,
2013-02-22 23:57:00,46.6,35.0,29.91,NW,315,3.5,3.5,64,0.00,CLR,,0.00,WeatherDisplay:10.37,2013-02-23 05:57:00,